星链-2389 (STARLINK-2389 )

导读

STARLINK-2389是美国SpaceX公司星链(Starlink)项目的卫星,于2021年3月11日发射升空,属于星链一期低轨星座组网卫星。作为全球低轨卫星互联网计划的组成部分,它旨在为全球偏远地区提供低延迟高速宽带服务,星链项目计划最终部署超4万颗卫星,目前已在多国商用服务,该卫星也遵循星链星座统一轨道部署方案,融入星座网络提供通信覆盖。

Basic Information
目录编号:
47808
目录名称:
STARLINK-2389
国际标识:
2021-018X
轨道中心:
EARTH
卫星名称:
星链-2389
卫星全名:
星链-2389 (STARLINK-2389 )
卫星状态:
在轨 (已飞行2003 天)
发射日期:
2021-03-11 UTC
国别 :
美国 (US)
星等 :
--
Orbit Information
数据来源 国际轨道数据 AOE轨道数据
星历时间 2026-09-04T09:25:08+0800
10小时前
查看轨道信息
2026-09-03T23:00:00+0800
20小时前
查看轨道信息
半长轴 6848.844km 6848.855km
偏心率 0.0001278 0.0001328
轨道倾角 53.160° 53.159°
近地点辐角 95.352° 72.001°
升交点赤经 132.575° 134.596°
平近点角 264.763° 52.971°
近地点 469.831km 469.808km
远地点 471.583km 471.628km
周期 94.013分钟 94.013分钟
每日圈数 15.317112 15.317077
Detailed Information
固有亮度:
5
最大亮度:
2.5
卫星平台:
Starlink V1.0
覆盖范围:
全球
运营商:
太空探索技术公司
运营商所在国:
美国
制造商(研发单位):
太空探索技术公司
制造商所在国:
美国
使用方式:
暂无
Satellite Introduction
星链(Starlink)计划是由太空探索技术公司(SpaceX)提出的一个巨型低轨卫星互联网星座项目,计划在2019年至2024年间在太空搭建由约1.2万颗卫星组成的“星链”网络,其中1584颗将部署在地球上空550千米处的近地轨道,并从2020年开始工作。该卫星仍在工作。
2D Orbit Map
3D Orbit Map
Orbit Altitude Analysis Chart
Orbit Inclination Analysis Chart
Orbit Comprehensive Analysis Chart
View Comprehensive Chart
Conjunction Data List
Event ID Objects TCA Miss Dist (km) Collision Risk Probability Collision Risk Index (CRI) Action
CDM_260906-035204-780806-533821
2026-09-06T
03:52:28+0000
1.170 km
极远距离
6.076439E-6 低风险 0.51
CDM_260906-043104-780806-266321
2026-09-06T
04:31:28+0000
2.249 km
极远距离
2.125311E-6 低风险 0.42
CDM_260904-203604-780806-838621
2026-09-04T
20:36:07+0000
2.616 km
极远距离
1.428023E-6 低风险 0.38
CDM_260905-102804-780806-047021
PHISAT 2 (60470)
2026-09-05T
10:28:17+0000
2.859 km
极远距离
1.40982E-6 低风险 0.38
CDM_260906-055204-780806-772721
2026-09-06T
05:52:07+0000
2.897 km
极远距离
1.396292E-6 低风险 0.38
CDM_260904-204004-780806-796721
2026-09-04T
20:40:54+0000
2.809 km
极远距离
1.381693E-6 低风险 0.38
CDM_260906-021804-780806-533821
2026-09-06T
02:18:31+0000
2.039 km
极远距离
1.183954E-6 低风险 0.36
CDM_260905-154104-780806-874821
2026-09-05T
15:41:56+0000
2.716 km
极远距离
9.117598E-7 极低风险 0.34
CDM_260905-022604-780806-821921
2026-09-05T
02:26:25+0000
2.943 km
极远距离
8.082119E-7 极低风险 0.33